ARG1421 SAME-SABE

Flight info

Callsign ARG1421
Flight time 1h 12m
Altitude 37000
Route KAMUV2G KAMUV UT670 SNT SNT8Q
Aircraft B738/M-SDE2E3FGHIRWXY/LB1

Departure

Time 2026-04-20 21:42
Airport Governor Francisco Gabrielli International Airport (SAME)

Arrival

Time 2026-04-20 22:54
Airport Aeroparque Jorge Newbery (SABE)
Time Latitude Longitude Altitude Speed Heading
2026-04-20 21:11 -32.82801 -68.79775 2421 ft 0 kts 271°
2026-04-20 21:33 -32.82802 -68.79751 2415 ft 4 kts 273°
2026-04-20 21:34 -32.82806 -68.79721 2420 ft 4 kts 301°
2026-04-20 21:34 -32.82820 -68.79709 2420 ft 3 kts 358°
2026-04-20 21:34 -32.82847 -68.79709 2417 ft 4 kts
2026-04-20 21:34 -32.82862 -68.79709 2418 ft 0 kts
2026-04-20 21:36 -32.82861 -68.79709 2416 ft 1 kts
2026-04-20 21:37 -32.82849 -68.79709 2416 ft 6 kts
2026-04-20 21:37 -32.82754 -68.79707 2412 ft 12 kts
2026-04-20 21:37 -32.82680 -68.79685 2415 ft 11 kts 61°
2026-04-20 21:37 -32.82673 -68.79591 2415 ft 11 kts 84°
2026-04-20 21:38 -32.82636 -68.79511 2413 ft 11 kts 25°
2026-04-20 21:38 -32.82563 -68.79500 2415 ft 10 kts
2026-04-20 21:38 -32.82490 -68.79500 2412 ft 10 kts
2026-04-20 21:38 -32.82421 -68.79499 2414 ft 10 kts
2026-04-20 21:39 -32.82352 -68.79498 2414 ft 10 kts
2026-04-20 21:39 -32.82286 -68.79497 2415 ft 9 kts
2026-04-20 21:39 -32.82221 -68.79495 2414 ft 9 kts
2026-04-20 21:39 -32.82149 -68.79493 2413 ft 12 kts
2026-04-20 21:40 -32.82052 -68.79491 2413 ft 14 kts
2026-04-20 21:40 -32.81956 -68.79479 2414 ft 14 kts 27°
2026-04-20 21:40 -32.81932 -68.79378 2413 ft 13 kts 90°
2026-04-20 21:40 -32.81938 -68.79282 2413 ft 9 kts 119°
2026-04-20 21:41 -32.81974 -68.79267 2413 ft 0 kts 180°
2026-04-20 21:41 -32.82041 -68.79268 2413 ft 36 kts 180°
2026-04-20 21:41 -32.82538 -68.79278 2416 ft 105 kts 181°
2026-04-20 21:41 -32.83477 -68.79297 2416 ft 162 kts 181°
2026-04-20 21:42 -32.84647 -68.79322 2972 ft 171 kts 179°
2026-04-20 21:42 -32.85862 -68.79339 3653 ft 178 kts 180°
2026-04-20 21:42 -32.87183 -68.79353 4070 ft 205 kts 180°
2026-04-20 21:42 -32.88692 -68.79363 4321 ft 229 kts 179°
2026-04-20 21:43 -32.90336 -68.79325 4714 ft 245 kts 170°
2026-04-20 21:43 -32.91912 -68.78443 5117 ft 260 kts 136°
2026-04-20 21:43 -32.92890 -68.76628 5910 ft 267 kts 107°
2026-04-20 21:43 -32.93131 -68.74403 6658 ft 278 kts 91°
2026-04-20 21:44 -32.93055 -68.72071 7338 ft 287 kts 87°
2026-04-20 21:44 -32.92918 -68.69667 8081 ft 294 kts 86°
2026-04-20 21:44 -32.92795 -68.67217 8867 ft 299 kts 86°
2026-04-20 21:44 -32.92691 -68.64720 9615 ft 306 kts 85°
2026-04-20 21:45 -32.92598 -68.62160 10306 ft 313 kts 85°
2026-04-20 21:45 -32.92525 -68.59543 10986 ft 319 kts 85°
2026-04-20 21:45 -32.92467 -68.56849 11447 ft 336 kts 86°
2026-04-20 21:45 -32.92419 -68.53970 11625 ft 359 kts 86°
2026-04-20 21:46 -32.92377 -68.50943 12090 ft 371 kts 86°
2026-04-20 21:46 -32.92336 -68.47840 12736 ft 377 kts 86°
2026-04-20 21:46 -32.92294 -68.44704 13436 ft 382 kts 86°
2026-04-20 21:46 -32.92249 -68.41518 14082 ft 388 kts 86°
2026-04-20 21:47 -32.92201 -68.38288 14699 ft 392 kts 86°
2026-04-20 21:47 -32.92152 -68.35068 15374 ft 395 kts 86°
2026-04-20 21:47 -32.92101 -68.31780 16027 ft 399 kts 86°
2026-04-20 21:47 -32.92048 -68.28454 16659 ft 404 kts 86°
2026-04-20 21:48 -32.91994 -68.25096 17279 ft 409 kts 86°
2026-04-20 21:48 -32.91938 -68.21694 17903 ft 413 kts 86°
2026-04-20 21:48 -32.91880 -68.18263 18505 ft 417 kts 86°
2026-04-20 21:48 -32.91821 -68.14789 19046 ft 421 kts 86°
2026-04-20 21:49 -32.91762 -68.11292 19606 ft 425 kts 86°
2026-04-20 21:49 -32.91701 -68.07766 20141 ft 429 kts 86°
2026-04-20 21:49 -32.91639 -68.04201 20672 ft 432 kts 86°
2026-04-20 21:49 -32.91575 -68.00607 21199 ft 436 kts 86°
2026-04-20 21:50 -32.91510 -67.96980 21709 ft 440 kts 86°
2026-04-20 21:50 -32.91443 -67.93326 22218 ft 444 kts 86°
2026-04-20 21:50 -32.91375 -67.89641 22709 ft 448 kts 86°
2026-04-20 21:50 -32.91305 -67.85914 23195 ft 452 kts 86°
2026-04-20 21:51 -32.91233 -67.82168 23671 ft 455 kts 86°
2026-04-20 21:51 -32.91160 -67.78384 24062 ft 459 kts 86°
2026-04-20 21:51 -32.91085 -67.74568 24441 ft 463 kts 85°
2026-04-20 21:51 -32.91028 -67.70721 24814 ft 468 kts 89°
2026-04-20 21:52 -32.91490 -67.66861 25158 ft 475 kts 101°
2026-04-20 21:52 -32.92253 -67.63015 25547 ft 478 kts 103°
2026-04-20 21:52 -32.93062 -67.59154 25895 ft 483 kts 103°
2026-04-20 21:52 -32.93875 -67.55269 26238 ft 486 kts 103°
2026-04-20 21:53 -32.94680 -67.51346 26586 ft 490 kts 102°
2026-04-20 21:53 -32.95473 -67.47380 26931 ft 493 kts 102°
2026-04-20 21:53 -32.96255 -67.43390 27255 ft 497 kts 102°
2026-04-20 21:53 -32.97034 -67.39374 27614 ft 500 kts 102°
2026-04-20 21:54 -32.97814 -67.35319 27935 ft 504 kts 102°
2026-04-20 21:54 -32.98331 -67.32631 28136 ft 506 kts 102°
2026-04-20 21:54 -32.99129 -67.28472 28436 ft 510 kts 101°
2026-04-20 21:54 -32.99921 -67.24342 28728 ft 514 kts 102°
2026-04-20 21:55 -33.00719 -67.20180 29023 ft 517 kts 102°
2026-04-20 21:55 -33.01523 -67.15984 29307 ft 521 kts 101°
2026-04-20 21:55 -33.02331 -67.11758 29584 ft 524 kts 101°
2026-04-20 21:55 -33.03140 -67.07518 29862 ft 528 kts 101°
2026-04-20 21:56 -33.03956 -67.03235 30136 ft 531 kts 101°
2026-04-20 21:56 -33.04772 -66.98940 30390 ft 534 kts 101°
2026-04-20 21:56 -33.05593 -66.94614 30634 ft 536 kts 101°
2026-04-20 21:56 -33.06416 -66.90264 30874 ft 538 kts 101°
2026-04-20 21:57 -33.07240 -66.85907 31111 ft 541 kts 101°
2026-04-20 21:57 -33.08067 -66.81522 31321 ft 543 kts 101°
2026-04-20 21:57 -33.08896 -66.77120 31543 ft 545 kts 101°
2026-04-20 21:57 -33.09729 -66.72700 31814 ft 546 kts 101°
2026-04-20 21:58 -33.10558 -66.68293 32144 ft 545 kts 101°
2026-04-20 21:58 -33.11386 -66.63882 32489 ft 544 kts 101°
2026-04-20 21:58 -33.12210 -66.59482 32772 ft 544 kts 101°
2026-04-20 21:58 -33.13033 -66.55072 33025 ft 545 kts 101°
2026-04-20 21:59 -33.13857 -66.50653 33308 ft 545 kts 101°
2026-04-20 21:59 -33.14677 -66.46245 33634 ft 544 kts 101°
2026-04-20 21:59 -33.15494 -66.41839 33951 ft 544 kts 101°
2026-04-20 21:59 -33.16310 -66.37435 34212 ft 544 kts 101°
2026-04-20 22:00 -33.17124 -66.33029 34452 ft 544 kts 101°
2026-04-20 22:00 -33.17936 -66.28630 34729 ft 542 kts 101°
2026-04-20 22:00 -33.18744 -66.24239 35017 ft 541 kts 101°
2026-04-20 22:00 -33.19549 -66.19860 35272 ft 540 kts 101°
2026-04-20 22:01 -33.20351 -66.15486 35476 ft 540 kts 101°
2026-04-20 22:01 -33.21153 -66.11111 35676 ft 540 kts 101°
2026-04-20 22:01 -33.21958 -66.06724 35891 ft 540 kts 101°
2026-04-20 22:01 -33.22761 -66.02345 36124 ft 539 kts 101°
2026-04-20 22:02 -33.23561 -65.97973 36351 ft 539 kts 101°
2026-04-20 22:02 -33.24358 -65.93608 36601 ft 537 kts 101°
2026-04-20 22:02 -33.25151 -65.89252 36840 ft 537 kts 101°
2026-04-20 22:02 -33.25941 -65.84898 37019 ft 537 kts 101°
2026-04-20 22:03 -33.26733 -65.80530 37120 ft 539 kts 100°
2026-04-20 22:03 -33.28317 -65.71756 37107 ft 539 kts 100°
2026-04-20 22:04 -33.29887 -65.63033 37112 ft 535 kts 100°
2026-04-20 22:04 -33.31442 -65.54351 37121 ft 533 kts 100°
2026-04-20 22:05 -33.32984 -65.45702 37114 ft 531 kts 100°
2026-04-20 22:05 -33.34516 -65.37074 37112 ft 530 kts 99°
2026-04-20 22:06 -33.36041 -65.28453 37123 ft 530 kts 99°
2026-04-20 22:06 -33.37561 -65.19816 37120 ft 531 kts 99°
2026-04-20 22:07 -33.39082 -65.11142 37125 ft 533 kts 99°
2026-04-20 22:07 -33.40599 -65.02451 37117 ft 535 kts 99°
2026-04-20 22:08 -33.42117 -64.93719 37108 ft 537 kts 99°
2026-04-20 22:08 -33.43632 -64.84962 37113 ft 538 kts 99°
2026-04-20 22:09 -33.45147 -64.76168 37117 ft 539 kts 99°
2026-04-20 22:09 -33.46656 -64.67374 37105 ft 540 kts 99°
2026-04-20 22:10 -33.48160 -64.58564 37102 ft 540 kts 99°
2026-04-20 22:10 -33.49642 -64.49749 37094 ft 539 kts 98°
2026-04-20 22:11 -33.51056 -64.40952 37087 ft 538 kts 98°
2026-04-20 22:11 -33.52455 -64.32159 37083 ft 536 kts 98°
2026-04-20 22:12 -33.53852 -64.23383 37088 ft 535 kts 98°
2026-04-20 22:12 -33.55243 -64.14636 37087 ft 534 kts 98°
2026-04-20 22:13 -33.56626 -64.05903 37085 ft 533 kts 98°
2026-04-20 22:13 -33.58001 -63.97178 37078 ft 532 kts 98°
2026-04-20 22:14 -33.59365 -63.88484 37082 ft 531 kts 98°
2026-04-20 22:14 -33.60724 -63.79773 37081 ft 530 kts 98°
2026-04-20 22:15 -33.62074 -63.71080 37075 ft 530 kts 97°
2026-04-20 22:15 -33.63415 -63.62399 37078 ft 530 kts 97°
2026-04-20 22:16 -33.64753 -63.53701 37078 ft 530 kts 97°
2026-04-20 22:16 -33.66084 -63.45006 37073 ft 530 kts 97°
2026-04-20 22:17 -33.67410 -63.36302 37069 ft 530 kts 97°
2026-04-20 22:17 -33.68738 -63.27538 37070 ft 530 kts 97°
2026-04-20 22:18 -33.70045 -63.18872 37060 ft 530 kts 97°
2026-04-20 22:18 -33.71359 -63.10110 37065 ft 530 kts 97°
2026-04-20 22:19 -33.72696 -63.01164 37062 ft 530 kts 97°
2026-04-20 22:19 -33.73982 -62.92742 37059 ft 530 kts 97°
2026-04-20 22:20 -33.75324 -62.84044 37053 ft 529 kts 97°
2026-04-20 22:20 -33.76653 -62.75342 37058 ft 529 kts 97°
2026-04-20 22:21 -33.77970 -62.66655 37049 ft 528 kts 97°
2026-04-20 22:21 -33.79289 -62.57914 37052 ft 528 kts 97°
2026-04-20 22:22 -33.80582 -62.49296 37045 ft 527 kts 97°
2026-04-20 22:22 -33.81875 -62.40640 37046 ft 526 kts 97°
2026-04-20 22:23 -33.83172 -62.31916 37041 ft 525 kts 97°
2026-04-20 22:23 -33.84449 -62.23278 37041 ft 525 kts 97°
2026-04-20 22:24 -33.85720 -62.14641 37037 ft 524 kts 97°
2026-04-20 22:24 -33.86984 -62.06006 37036 ft 524 kts 97°
2026-04-20 22:25 -33.88242 -61.97372 37031 ft 523 kts 97°
2026-04-20 22:25 -33.89491 -61.88753 37038 ft 524 kts 97°
2026-04-20 22:26 -33.90730 -61.80157 37041 ft 525 kts 97°
2026-04-20 22:26 -33.91976 -61.71473 37031 ft 527 kts 97°
2026-04-20 22:27 -33.93847 -61.58392 37030 ft 529 kts 97°
2026-04-20 22:27 -33.95100 -61.49594 37025 ft 530 kts 97°
2026-04-20 22:28 -33.96341 -61.40836 37023 ft 531 kts 96°
2026-04-20 22:28 -33.97563 -61.32115 37015 ft 531 kts 96°
2026-04-20 22:29 -33.98786 -61.23283 36994 ft 531 kts 96°
2026-04-20 22:29 -33.99392 -61.18877 36499 ft 536 kts 96°
2026-04-20 22:29 -34.00001 -61.14450 35977 ft 533 kts 96°
2026-04-20 22:30 -34.00598 -61.10102 35387 ft 533 kts 96°
2026-04-20 22:30 -34.01207 -61.05660 34769 ft 533 kts 96°
2026-04-20 22:30 -34.01812 -61.01235 34118 ft 533 kts 96°
2026-04-20 22:30 -34.02414 -60.96818 33360 ft 533 kts 96°
2026-04-20 22:31 -34.03005 -60.92471 32651 ft 532 kts 96°
2026-04-20 22:31 -34.03601 -60.88074 31919 ft 531 kts 96°
2026-04-20 22:31 -34.04200 -60.83642 31411 ft 525 kts 96°
2026-04-20 22:31 -34.04784 -60.79323 30920 ft 520 kts 96°
2026-04-20 22:32 -34.05353 -60.75094 30437 ft 515 kts 96°
2026-04-20 22:32 -34.05922 -60.70855 29927 ft 510 kts 96°
2026-04-20 22:32 -34.06483 -60.66655 29363 ft 505 kts 96°
2026-04-20 22:32 -34.07038 -60.62492 28835 ft 500 kts 96°
2026-04-20 22:33 -34.07408 -60.59710 28493 ft 496 kts 96°
2026-04-20 22:33 -34.08124 -60.54312 27814 ft 490 kts 97°
2026-04-20 22:33 -34.08486 -60.51572 27471 ft 487 kts 97°
2026-04-20 22:33 -34.09015 -60.47565 26980 ft 482 kts 97°
2026-04-20 22:34 -34.09539 -60.43582 26487 ft 478 kts 97°
2026-04-20 22:34 -34.10057 -60.39637 26000 ft 474 kts 97°
2026-04-20 22:34 -34.10562 -60.35779 25519 ft 471 kts 97°
2026-04-20 22:34 -34.11077 -60.31836 25028 ft 468 kts 97°
2026-04-20 22:35 -34.11582 -60.27959 24521 ft 465 kts 97°
2026-04-20 22:35 -34.12079 -60.24132 24032 ft 463 kts 97°
2026-04-20 22:35 -34.12577 -60.20293 23525 ft 461 kts 97°
2026-04-20 22:35 -34.13071 -60.16479 22968 ft 458 kts 97°
2026-04-20 22:36 -34.13558 -60.12703 22456 ft 454 kts 98°
2026-04-20 22:36 -34.14035 -60.09003 21970 ft 450 kts 98°
2026-04-20 22:36 -34.14517 -60.05246 21485 ft 445 kts 98°
2026-04-20 22:36 -34.14988 -60.01571 21006 ft 441 kts 98°
2026-04-20 22:37 -34.15454 -59.97926 20545 ft 438 kts 98°
2026-04-20 22:37 -34.15909 -59.94352 20083 ft 434 kts 98°
2026-04-20 22:37 -34.16371 -59.90721 19614 ft 431 kts 98°
2026-04-20 22:37 -34.16817 -59.87208 19159 ft 427 kts 98°
2026-04-20 22:38 -34.17268 -59.83643 18674 ft 425 kts 98°
2026-04-20 22:38 -34.17714 -59.80106 18202 ft 422 kts 98°
2026-04-20 22:38 -34.18154 -59.76618 17684 ft 419 kts 98°
2026-04-20 22:38 -34.18589 -59.73154 17196 ft 415 kts 97°
2026-04-20 22:39 -34.19014 -59.69767 16749 ft 411 kts 97°
2026-04-20 22:39 -34.19444 -59.66326 16287 ft 408 kts 97°
2026-04-20 22:39 -34.19865 -59.62953 15839 ft 404 kts 97°
2026-04-20 22:39 -34.20276 -59.59654 15406 ft 401 kts 97°
2026-04-20 22:40 -34.20688 -59.56335 14959 ft 398 kts 97°
2026-04-20 22:40 -34.21097 -59.53042 14515 ft 395 kts 97°
2026-04-20 22:40 -34.21501 -59.49772 14080 ft 393 kts 97°
2026-04-20 22:40 -34.21903 -59.46520 13596 ft 391 kts 97°
2026-04-20 22:41 -34.22305 -59.43287 13127 ft 388 kts 98°
2026-04-20 22:41 -34.22768 -59.40046 12640 ft 385 kts 99°
2026-04-20 22:41 -34.23260 -59.36875 12191 ft 382 kts 100°
2026-04-20 22:41 -34.23751 -59.33773 12032 ft 368 kts 100°
2026-04-20 22:42 -34.24220 -59.30798 12007 ft 353 kts 99°
2026-04-20 22:42 -34.24663 -59.27965 11894 ft 333 kts 99°
2026-04-20 22:42 -34.25077 -59.25285 11738 ft 317 kts 99°
2026-04-20 22:42 -34.25475 -59.22694 11314 ft 311 kts 99°
2026-04-20 22:43 -34.25861 -59.20159 10807 ft 310 kts 99°
2026-04-20 22:43 -34.26248 -59.17603 10336 ft 308 kts 99°
2026-04-20 22:43 -34.26632 -59.15071 9879 ft 305 kts 99°
2026-04-20 22:43 -34.27011 -59.12558 9365 ft 303 kts 98°
2026-04-20 22:44 -34.27387 -59.10065 8894 ft 299 kts 98°
2026-04-20 22:44 -34.27758 -59.07600 8432 ft 298 kts 98°
2026-04-20 22:44 -34.28128 -59.05140 8119 ft 296 kts 98°
2026-04-20 22:44 -34.28496 -59.02700 7867 ft 293 kts 99°
2026-04-20 22:45 -34.28858 -59.00284 7568 ft 291 kts 99°
2026-04-20 22:45 -34.29268 -58.97896 7255 ft 291 kts 108°
2026-04-20 22:45 -34.30083 -58.95660 6966 ft 290 kts 117°
2026-04-20 22:45 -34.31044 -58.93525 6666 ft 289 kts 118°
2026-04-20 22:46 -34.32026 -58.91410 6375 ft 288 kts 118°
2026-04-20 22:46 -34.32994 -58.89296 6073 ft 286 kts 118°
2026-04-20 22:46 -34.33941 -58.87191 5828 ft 283 kts 117°
2026-04-20 22:46 -34.34867 -58.85099 5539 ft 281 kts 117°
2026-04-20 22:47 -34.35779 -58.83018 5267 ft 278 kts 116°
2026-04-20 22:47 -34.36676 -58.80958 5020 ft 275 kts 116°
2026-04-20 22:47 -34.37559 -58.78920 4788 ft 271 kts 116°
2026-04-20 22:47 -34.38441 -58.76878 4525 ft 268 kts 116°
2026-04-20 22:48 -34.39299 -58.74889 4269 ft 265 kts 116°
2026-04-20 22:48 -34.40147 -58.72917 4005 ft 263 kts 116°
2026-04-20 22:48 -34.40986 -58.70967 3754 ft 260 kts 116°
2026-04-20 22:48 -34.41815 -58.69040 3508 ft 253 kts 116°
2026-04-20 22:49 -34.42602 -58.67209 3394 ft 238 kts 116°
2026-04-20 22:49 -34.43337 -58.65499 3328 ft 219 kts 116°
2026-04-20 22:49 -34.44016 -58.63917 3172 ft 206 kts 116°
2026-04-20 22:49 -34.44670 -58.62390 3031 ft 201 kts 116°
2026-04-20 22:50 -34.45293 -58.60937 2980 ft 188 kts 116°
2026-04-20 22:50 -34.45934 -58.59598 2972 ft 181 kts 122°
2026-04-20 22:50 -34.46620 -58.58342 2932 ft 177 kts 123°
2026-04-20 22:50 -34.47318 -58.57084 2813 ft 183 kts 123°
2026-04-20 22:51 -34.48035 -58.55792 2572 ft 185 kts 123°
2026-04-20 22:51 -34.48749 -58.54505 2333 ft 182 kts 123°
2026-04-20 22:51 -34.49446 -58.53246 2097 ft 177 kts 124°
2026-04-20 22:51 -34.50108 -58.52053 1873 ft 164 kts 124°
2026-04-20 22:52 -34.50713 -58.50961 1685 ft 148 kts 124°
2026-04-20 22:52 -34.51273 -58.49950 1502 ft 145 kts 124°
2026-04-20 22:52 -34.51835 -58.48937 1315 ft 144 kts 124°
2026-04-20 22:52 -34.52384 -58.47948 1121 ft 140 kts 124°
2026-04-20 22:53 -34.52932 -58.46959 945 ft 143 kts 125°
2026-04-20 22:53 -34.53484 -58.45967 729 ft 142 kts 123°
2026-04-20 22:53 -34.54036 -58.44982 537 ft 138 kts 121°
2026-04-20 22:53 -34.54551 -58.44025 329 ft 134 kts 124°
2026-04-20 22:54 -34.55067 -58.43101 164 ft 130 kts 124°
2026-04-20 22:54 -34.55572 -58.42208 31 ft 124 kts 124°
2026-04-20 22:54 -34.55974 -58.41490 24 ft 73 kts 123°
2026-04-20 22:54 -34.56131 -58.41206 29 ft 25 kts 124°
2026-04-20 22:55 -34.56185 -58.41089 28 ft 13 kts 101°
2026-04-20 22:55 -34.56172 -58.41021 27 ft 6 kts 59°
2026-04-20 22:55 -34.56152 -58.40981 25 ft 0 kts 59°
2026-04-20 22:56 -34.56150 -58.40978 24 ft 0 kts 55°
2026-04-20 22:56 -34.56142 -58.40974 26 ft 4 kts 13°
2026-04-20 22:57 -34.56115 -58.40996 24 ft 6 kts 308°
2026-04-20 22:57 -34.56078 -58.41055 25 ft 12 kts 307°
2026-04-20 22:57 -34.56021 -58.41147 27 ft 14 kts 307°
2026-04-20 22:57 -34.55977 -58.41218 24 ft 10 kts 307°
2026-04-20 22:58 -34.55965 -58.41237 24 ft 0 kts 307°
2026-04-20 22:58 -34.55956 -58.41250 28 ft 5 kts 307°
2026-04-20 22:59 -34.55923 -58.41294 28 ft 9 kts 330°
2026-04-20 22:59 -34.55849 -58.41287 26 ft 12 kts 345°
2026-04-20 22:59 -34.55804 -58.41343 27 ft 3 kts 319°
2026-04-20 22:59 -34.55784 -58.41344 26 ft 3 kts 18°
2026-04-20 23:00 -34.55768 -58.41331 24 ft 3 kts 33°
2026-04-20 23:00 -34.55761 -58.41325 24 ft 0 kts 33°
2026-04-20 23:00 -34.55760 -58.41325 24 ft 0 kts 33°